Change the Weather History Date:

Friday, November 23, 2012

  Actual Average (KLAW) Record (KLAW)
Temperature  
Mean Temperature 50 °F -  
Max Temperature 64 °F 59 °F 79 °F (1965)
Min Temperature 37 °F 34 °F 20 °F (1975)
Degree Days  
Heating Degree Days 14    
Moisture  
Dew Point 30 °F    
Average Humidity 43    
Maximum Humidity 65    
Minimum Humidity 27    
Precipitation  
Precipitation 0.00 in - - ()
Sea Level Pressure  
Sea Level Pressure 30.41 in    
Wind  
Wind Speed 18 mph (NNE)    
Max Wind Speed 26 mph    
Max Gust Speed 41 mph    
Visibility 10 miles    
Events      
Averages and records for this station are not official NWS values.
T = Trace of Precipitation, MM = Missing Value Source: NWS Daily Summary

Daily Weather History Graph

Daily Weather History Graph

Search for Another Location

Airport or City:

Trip Planner

Search our weather history database for the weather conditions in past years. The results will help you decide how hot, cold, wet, or windy it might be!

Date:

Astronomy

Nov. 23, 2012 Rise Set
Actual Time 7:13 AM CST 5:23 PM CST
Civil Twilight 6:46 AM CST 5:50 PM CST
Nautical Twilight 6:15 AM CST 6:21 PM CST
Astronomical Twilight 5:45 AM CST 6:51 PM CST
Moon 2:29 PM CST (11/23) 2:43 AM CST (11/23)
Length of Visible Light 11h 04m
Length of Day
10h 09m
Waxing Gibbous, 80% of the Moon is Illuminated
Nov 23
Waxing Gibbous
Nov 28
Full
Dec 6
Last Quarter
Dec 13
New
Dec 19
First Quarter

Hourly Weather History & Observations

Time (CST) Temp. Windchill Dew Point Humidity Pressure Visibility Wind Dir Wind Speed Gust Speed Precip Events Conditions
12:15 AM 64.4 °F - 42.8 °F 45% 30.17 in 10.0 mi NNE 24.2 mph 31.1 mph N/A   Overcast
12:35 AM 62.6 °F - 42.8 °F 48% 30.18 in 10.0 mi NNE 23.0 mph 32.2 mph N/A   Overcast
12:55 AM 62.6 °F - 41.0 °F 45% 30.19 in 10.0 mi NNE 23.0 mph 29.9 mph N/A   Mostly Cloudy
1:15 AM 62.6 °F - 41.0 °F 45% 30.19 in 10.0 mi NNE 24.2 mph 33.4 mph N/A   Overcast
1:35 AM 60.8 °F - 39.2 °F 45% 30.20 in 10.0 mi NNE 23.0 mph 29.9 mph N/A   Overcast
1:55 AM 60.8 °F - 37.4 °F 42% 30.21 in 10.0 mi NE 24.2 mph 29.9 mph N/A   Mostly Cloudy
2:15 AM 59.0 °F - 37.4 °F 45% 30.22 in 10.0 mi NNE 25.3 mph 41.4 mph N/A   Scattered Clouds
2:35 AM 59.0 °F - 35.6 °F 42% 30.24 in 10.0 mi NNE 19.6 mph 32.2 mph N/A   Mostly Cloudy
2:55 AM 59.0 °F - 33.8 °F 39% 30.25 in 10.0 mi NNE 21.9 mph 27.6 mph N/A   Overcast
3:15 AM 57.2 °F - 33.8 °F 41% 30.26 in 10.0 mi NNE 26.5 mph 39.1 mph N/A   Mostly Cloudy
3:35 AM 55.4 °F - 32.0 °F 41% 30.27 in 10.0 mi NNE 23.0 mph 33.4 mph N/A   Scattered Clouds
3:55 AM 55.4 °F - 32.0 °F 41% 30.28 in 10.0 mi NNE 23.0 mph 33.4 mph N/A   Clear
4:15 AM 55.4 °F - 30.2 °F 38% 30.29 in 10.0 mi NNE 23.0 mph 31.1 mph N/A   Clear
4:35 AM 53.6 °F - 30.2 °F 41% 30.31 in 10.0 mi NE 20.7 mph 32.2 mph N/A   Clear
4:55 AM 53.6 °F - 30.2 °F 41% 30.31 in 10.0 mi NE 19.6 mph 29.9 mph N/A   Clear
5:15 AM 53.6 °F - 30.2 °F 41% 30.33 in 10.0 mi NE 21.9 mph 29.9 mph N/A   Scattered Clouds
5:35 AM 53.6 °F - 30.2 °F 41% 30.34 in 10.0 mi NE 18.4 mph 23.0 mph N/A   Mostly Cloudy
5:55 AM 53.6 °F - 32.0 °F 44% 30.35 in 10.0 mi NE 13.8 mph 24.2 mph N/A   Overcast
6:15 AM 51.8 °F - 32.0 °F 47% 30.37 in 10.0 mi NNE 13.8 mph 20.7 mph N/A   Mostly Cloudy
6:35 AM 51.8 °F - 32.0 °F 47% 30.38 in 10.0 mi NNE 15.0 mph 19.6 mph N/A   Clear
7:15 AM 50.0 °F - 32.0 °F 50% 30.40 in 10.0 mi NNE 15.0 mph - N/A   Clear
7:35 AM 50.0 °F - 32.0 °F 50% 30.42 in 10.0 mi NNE 12.7 mph 18.4 mph N/A   Clear
7:55 AM 50.0 °F - 33.8 °F 54% 30.43 in 10.0 mi NNE 12.7 mph - N/A   Clear
8:15 AM 48.2 °F - 35.6 °F 62% 30.44 in 10.0 mi NNE 11.5 mph 20.7 mph N/A   Clear
8:35 AM 50.0 °F - 35.6 °F 58% 30.45 in 10.0 mi NNE 13.8 mph - N/A   Clear
8:55 AM 50.0 °F - 35.6 °F 58% 30.46 in 10.0 mi NE 15.0 mph 24.2 mph N/A   Clear
9:15 AM 51.8 °F - 33.8 °F 50% 30.47 in 10.0 mi NNE 16.1 mph 25.3 mph N/A   Clear
9:35 AM 51.8 °F - 32.0 °F 47% 30.48 in 10.0 mi NE 15.0 mph 25.3 mph N/A   Clear
9:55 AM 53.6 °F - 30.2 °F 41% 30.49 in 10.0 mi NNE 20.7 mph 26.5 mph N/A   Clear
10:15 AM 53.6 °F - 28.4 °F 38% 30.50 in 10.0 mi NE 17.3 mph 27.6 mph N/A   Clear
10:35 AM 55.4 °F - 28.4 °F 36% 30.50 in 10.0 mi NE 19.6 mph 24.2 mph N/A   Clear
10:55 AM 55.4 °F - 28.4 °F 36% 30.51 in 10.0 mi NE 16.1 mph 24.2 mph N/A   Clear
11:15 AM 57.2 °F - 28.4 °F 33% 30.50 in 10.0 mi NNE 17.3 mph 24.2 mph N/A   Clear
11:35 AM 59.0 °F - 26.6 °F 29% 30.50 in 10.0 mi North 20.7 mph 26.5 mph N/A   Clear
11:55 AM 59.0 °F - 24.8 °F 27% 30.50 in 10.0 mi NNE 18.4 mph 29.9 mph N/A   Clear
12:15 PM 59.0 °F - 26.6 °F 29% 30.49 in 10.0 mi NNE 16.1 mph 25.3 mph N/A   Clear
12:35 PM 59.0 °F - 28.4 °F 31% 30.49 in 10.0 mi NNE 15.0 mph 19.6 mph N/A   Clear
12:55 PM 59.0 °F - 26.6 °F 29% 30.48 in 10.0 mi North 16.1 mph 26.5 mph N/A   Clear
1:15 PM 59.0 °F - 26.6 °F 29% 30.48 in 10.0 mi North 16.1 mph 23.0 mph N/A   Clear
1:35 PM 59.0 °F - 28.4 °F 31% 30.48 in 10.0 mi NNE 13.8 mph 24.2 mph N/A   Clear
1:55 PM 57.2 °F - 26.6 °F 31% 30.47 in 10.0 mi NNE 17.3 mph 27.6 mph N/A   Clear
2:15 PM 59.0 °F - 26.6 °F 29% 30.47 in 10.0 mi North 15.0 mph - N/A   Clear
2:35 PM 57.2 °F - 26.6 °F 31% 30.47 in 10.0 mi North 16.1 mph 25.3 mph N/A   Clear
2:55 PM 57.2 °F - 28.4 °F 33% 30.46 in 10.0 mi North 11.5 mph 20.7 mph N/A   Clear
3:15 PM 55.4 °F - 28.4 °F 36% 30.46 in 10.0 mi North 16.1 mph 20.7 mph N/A   Clear
3:35 PM 55.4 °F - 28.4 °F 36% 30.46 in 10.0 mi NNE 16.1 mph 20.7 mph N/A   Clear
3:55 PM 55.4 °F - 28.4 °F 36% 30.46 in 10.0 mi North 12.7 mph 20.7 mph N/A   Clear
4:15 PM 55.4 °F - 26.6 °F 33% 30.46 in 10.0 mi NNE 12.7 mph 18.4 mph N/A   Clear
4:35 PM 53.6 °F - 26.6 °F 35% 30.46 in 10.0 mi North 10.4 mph - N/A   Clear
4:55 PM 53.6 °F - 26.6 °F 35% 30.46 in 10.0 mi North 11.5 mph - N/A   Clear
5:15 PM 51.8 °F - 26.6 °F 38% 30.46 in 10.0 mi North 12.7 mph 16.1 mph N/A   Clear
5:35 PM 50.0 °F - 26.6 °F 40% 30.46 in 10.0 mi North 9.2 mph - N/A   Clear
5:55 PM 50.0 °F - 26.6 °F 40% 30.46 in 10.0 mi North 9.2 mph - N/A   Clear
6:35 PM 46.4 °F 42.4 °F 26.6 °F 46% 30.47 in 10.0 mi North 8.1 mph - N/A   Clear
6:55 PM 46.4 °F 42.9 °F 26.6 °F 46% 30.47 in 10.0 mi NNE 6.9 mph - N/A   Clear
7:15 PM 46.4 °F 42.4 °F 26.6 °F 46% 30.47 in 10.0 mi NNE 8.1 mph - N/A   Clear
7:35 PM 44.6 °F 40.2 °F 26.6 °F 49% 30.47 in 10.0 mi NNE 8.1 mph - N/A   Clear
7:55 PM 44.6 °F 39.7 °F 26.6 °F 49% 30.47 in 10.0 mi NNE 9.2 mph - N/A   Clear
8:15 PM 44.6 °F 39.7 °F 26.6 °F 49% 30.47 in 10.0 mi NNE 9.2 mph - N/A   Clear
8:35 PM 42.8 °F 38.0 °F 26.6 °F 53% 30.46 in 10.0 mi NNE 8.1 mph - N/A   Clear
8:55 PM 42.8 °F 37.5 °F 26.6 °F 53% 30.46 in 10.0 mi NNE 9.2 mph - N/A   Clear
9:15 PM 42.8 °F 38.0 °F 26.6 °F 53% 30.46 in 10.0 mi NNE 8.1 mph - N/A   Clear
9:35 PM 42.8 °F 39.3 °F 26.6 °F 53% 30.46 in 10.0 mi NNE 5.8 mph - N/A   Clear
9:55 PM 41.0 °F 37.1 °F 26.6 °F 57% 30.47 in 10.0 mi NNE 5.8 mph - N/A   Clear
10:15 PM 41.0 °F 37.1 °F 26.6 °F 57% 30.47 in 10.0 mi NE 5.8 mph - N/A   Clear
10:55 PM 39.2 °F 33.6 °F 26.6 °F 61% 30.46 in 10.0 mi NE 8.1 mph - N/A   Clear
11:15 PM 37.4 °F 32.8 °F 26.6 °F 65% 30.46 in 10.0 mi NE 5.8 mph - N/A   Clear
11:35 PM 37.4 °F - 24.8 °F 60% 30.45 in 10.0 mi Calm Calm - N/A   Clear
11:55 PM 37.4 °F 33.8 °F 24.8 °F 60% 30.45 in 10.0 mi NE 4.6 mph - N/A   Clear